Location: Caltech
(34.1382°N, 118.1253°W)
Time: 03:57:01
(UTC-07:00)

Iridium 14 - Visible Passes

Search period start: 25 April 2015 00:00
Search period end: 05 May 2015 00:00
Orbit: 776 x 779 km, 86.4° (Epoch: 24 April)

Date Brightness Start Highest point End Pass type
(mag) Time Alt. Az. Time Alt. Az. Time Alt. Az.
25 Apr 8.8 00:26:53 14° NNW 00:26:53 14° NNW 00:27:40 10° NNW visible
25 Apr 8.4 23:53:14 19° NNW 23:53:14 19° NNW 23:54:38 10° N visible
26 Apr 8.2 23:19:34 20° N 23:19:34 20° N 23:21:11 10° N visible
27 Apr 8.2 22:45:54 18° NNE 22:45:54 18° NNE 22:47:19 10° NNE visible
28 Apr 8.7 00:26:21 13° NW 00:26:21 13° NW 00:27:11 10° NNW visible
28 Apr 8.3 22:12:14 12° NE 22:12:14 12° NE 22:12:54 10° NE visible
28 Apr 8.3 23:52:41 20° NNW 23:52:41 20° NNW 23:54:31 10° NNW visible
29 Apr 7.9 23:18:59 27° N 23:18:59 27° N 23:21:18 10° N visible
30 Apr 7.6 22:45:17 27° NNE 22:45:17 27° NNE 22:47:41 10° NNE visible
01 May 8.8 00:25:44 11° NW 00:25:44 11° NW 00:26:11 10° NW visible
01 May 7.8 22:11:34 20° NE 22:11:34 20° NE 22:13:38 10° NNE visible
01 May 8.3 23:52:01 20° NW 23:52:01 20° NW 23:54:12 10° NNW visible
02 May 8.1 21:37:51 12° ENE 21:37:51 12° ENE 21:38:48 10° NE visible
02 May 7.6 23:18:18 32° NNW 23:18:18 32° NNW 23:21:16 10° N visible
03 May 7.0 22:44:33 41° N 22:44:33 41° N 22:47:54 10° N visible
04 May 7.1 22:10:48 33° NE 22:10:48 33° NE 22:14:07 10° NNE visible
04 May 8.4 23:51:15 17° WNW 23:51:15 17° WNW 23:53:34 10° NW visible
